Lanai City, HI

8:30 PM HST on March 28, 2017 (GMT -1000)
Lanai City

Weather History for PHNY - September, 2013

Change the Weather History Date:

Tuesday, September 3, 2013

  Actual Average Record
Temperature  
Mean Temperature 72 °F -  
Max Temperature 81 °F 83 °F 85 °F (1981)
Min Temperature 64 °F 67 °F 60 °F (1955)
Cooling Degree Days 8    
Growing Degree Days 22 (Base 50)    
Moisture  
Dew Point 64 °F    
Average Humidity 72    
Maximum Humidity 94    
Minimum Humidity 56    
Precipitation  
Precipitation 0.00 in - - ()
Sea Level Pressure  
Sea Level Pressure 30.01 in    
Wind  
Wind Speed 7 mph (NE)    
Max Wind Speed 20 mph    
Max Gust Speed 21 mph    
Visibility 10 miles    
Events      
Averages and records for this station are not official NWS values.
T = Trace of Precipitation, MM = Missing Value Source: NWS Daily Summary

Daily Weather History Graph

Daily Weather History Graph

Search for Another Location

Airport or City:

Trip Planner

Search our weather history database for the weather conditions in past years. The results will help you decide how hot, cold, wet, or windy it might be!

Date:

Astronomy

Sep. 03, 2013 Rise Set
Actual Time 6:12 AM HST 6:41 PM HST
Civil Twilight 5:49 AM HST 7:03 PM HST
Nautical Twilight 5:23 AM HST 7:29 PM HST
Astronomical Twilight 4:57 AM HST 7:56 PM HST
Moon 4:42 AM HST (9/3) 5:33 PM HST (9/3)
Length of Visible Light 13h 13m
Length of Day
12h 29m
Waning Crescent, 3% of the Moon is Illuminated
Sep 3
Waning Crescent
Sep 5
New
Sep 12
First Quarter
Sep 19
Full
Sep 26
Last Quarter

Hourly Weather History & Observations

Time (HST) Temp. Heat Index Dew Point Humidity Pressure Visibility Wind Dir Wind Speed Gust Speed Precip Events Conditions
12:56 AM 64.9 °F - 63.0 °F 93% 30.02 in - ENE 6.9 mph - N/A   Clear
1:56 AM 66.2 °F - 64.4 °F 94% 30.06 in - NE 8.1 mph - N/A   Clear
2:56 AM 65.8 °F - 63.9 °F 93% 29.99 in - NNE 9.2 mph - N/A   Clear
3:56 AM 66.9 °F - 63.0 °F 87% 29.98 in - ENE 8.1 mph - N/A   Clear
4:56 AM 66.2 °F - 62.6 °F 88% 30.04 in - ENE 4.6 mph - N/A   Clear
5:56 AM 68.9 °F - 63.0 °F 81% 29.99 in 10.0 mi East 4.6 mph - N/A   Clear
6:56 AM 66.9 °F - 61.9 °F 84% 30.02 in 10.0 mi NE 3.5 mph - N/A   Clear
7:56 AM 75.9 °F - 63.0 °F 64% 30.03 in 10.0 mi NNW 3.5 mph - N/A   Clear
8:56 AM 79.0 °F - 63.0 °F 58% 30.04 in 10.0 mi Variable 3.5 mph - N/A   Clear
9:56 AM 79.9 °F - 63.0 °F 56% 30.03 in 10.0 mi West 8.1 mph - N/A   Overcast
10:13 AM 78.8 °F - 62.6 °F 57% 30.10 in 10.0 mi West 6.9 mph - N/A   Overcast
10:56 AM 77.9 °F - 63.0 °F 60% 30.03 in 10.0 mi West 4.6 mph - N/A   Overcast
11:56 AM 79.0 °F - 63.9 °F 60% 30.01 in 10.0 mi Variable 4.6 mph - N/A   Overcast
12:56 PM 77.9 °F - 63.9 °F 62% 30.00 in 10.0 mi Variable 3.5 mph - N/A   Overcast
1:34 PM 80.6 °F 82.3 °F 64.4 °F 58% 30.04 in 10.0 mi NE 12.7 mph 16.1 mph N/A   Mostly Cloudy
1:56 PM 78.8 °F - 64.4 °F 61% 30.03 in 10.0 mi SSW 11.5 mph 20.7 mph N/A   Overcast
2:10 PM 77.0 °F - 64.4 °F 65% 30.04 in 10.0 mi Calm Calm - N/A   Overcast
2:56 PM 77.0 °F - 65.8 °F 68% 29.96 in 10.0 mi Calm Calm - N/A   Mostly Cloudy
3:17 PM 78.8 °F - 66.2 °F 65% 30.02 in 10.0 mi East 6.9 mph 20.7 mph N/A   Mostly Cloudy
3:56 PM 81.0 °F 82.5 °F 63.9 °F 56% 29.94 in 10.0 mi NE 19.6 mph - N/A   Clear
4:56 PM 79.9 °F - 63.9 °F 58% 29.95 in 10.0 mi NE 18.4 mph - N/A   Clear
5:56 PM 75.9 °F - 65.8 °F 71% 29.96 in 10.0 mi NE 15.0 mph - N/A   Clear
6:56 PM 73.9 °F - 64.9 °F 73% 29.98 in 10.0 mi ENE 12.7 mph - N/A   Clear
7:56 PM 72.0 °F - 64.9 °F 78% 29.99 in 10.0 mi NE 9.2 mph - N/A   Partly Cloudy
8:56 PM 70.9 °F - 64.9 °F 81% 30.00 in 10.0 mi NE 11.5 mph - N/A   Clear
9:56 PM 72.0 °F - 64.9 °F 78% 30.00 in 10.0 mi ENE 11.5 mph - N/A   Clear
10:56 PM 70.0 °F - 64.9 °F 84% 30.01 in 10.0 mi ENE 6.9 mph - N/A   Partly Cloudy
11:56 PM 70.9 °F - 63.9 °F 78% 30.01 in 10.0 mi East 5.8 mph - N/A   Clear